EW4977 Weather Reports


time (UTC)temp
F
wind
direction
speed
knots
gust
knots
rain 1hr
in
rain 24hr
in
rain mn
in
humidity
%
barometer
mb
20260507090531 37 2 0.9 4.3 0.00 0.00 0.00 76 1012.3
20260507090049 37 352 1.7 4.3 0.00 0.00 0.00 76 1012.4
20260507085531 38 338 1.7 4.3 0.00 0.00 0.00 77 1012.3
20260507085031 38 294 0.0 3.5 0.00 0.00 0.00 76 1012.3
20260507084552 38 101 0.9 3.5 0.00 0.00 0.00 77 1012.4
20260507084030 38 330 0.9 2.6 0.00 0.00 0.00 77 1012.4
20260507083530 38 129 0.9 4.3 0.00 0.00 0.00 77 1012.4
20260507083043 38 84 0.9 4.3 0.00 0.00 0.00 77 1012.5
20260507082533 38 345 0.9 2.6 0.00 0.00 0.00 77 1012.5
20260507082030 38 100 1.7 3.5 0.00 0.00 0.00 78 1012.6
20260507081551 38 346 0.0 3.5 0.00 0.00 0.00 78 1012.5
20260507081031 39 82 1.7 3.5 0.00 0.00 0.00 78 1012.5
20260507080532 39 328 1.7 3.5 0.00 0.00 0.00 79 1012.5
20260507080041 39 353 0.9 2.6 0.00 0.00 0.00 79 1012.4
20260507075529 39 125 0.9 2.6 0.00 0.00 0.00 78 1012.3
20260507075031 39 335 0.9 2.6 0.00 0.00 0.00 77 1012.3
20260507074541 39 103 0.0 1.7 0.00 0.00 0.00 77 1012.4
20260507074030 39 116 0.9 1.7 0.00 0.00 0.00 77 1012.4
20260507073531 40 9 0.0 0.9 0.00 0.00 0.00 78 1012.4
20260507073044 40 0 0.0 0.9 0.00 0.00 0.00 78 1012.4
20260507072531 40 9 0.0 1.7 0.00 0.00 0.00 75 1012.4
20260507072031 40 0 0.0 1.7 0.00 0.00 0.00 76 1012.4
20260507071537 40 9 0.0 1.7 0.00 0.00 0.00 75 1012.6
20260507071031 40 0 0.0 0.9 0.00 0.00 0.00 74 1012.5
20260507070532 40 0 0.0 0.0 0.00 0.00 0.00 71 1012.4
20260507070044 40 0 0.0 0.0 0.00 0.00 0.00 72 1012.4
20260507065530 41 0 0.0 0.9 0.00 0.00 0.00 72 1012.5
20260507065028 41 0 0.0 0.9 0.00 0.00 0.00 73 1012.6
20260507064601 41 9 0.0 0.9 0.00 0.00 0.00 72 1012.6
20260507064031 41 0 0.0 0.9 0.00 0.00 0.00 70 1012.6
20260507063531 41 9 0.0 0.9 0.00 0.00 0.00 70 1012.7
20260507063044 41 0 0.0 1.7 0.00 0.00 0.00 70 1012.6
20260507062531 41 9 0.0 1.7 0.00 0.00 0.00 71 1012.7
20260507062031 41 25 0.0 0.9 0.00 0.00 0.00 71 1012.7
20260507061540 42 0 0.0 0.9 0.00 0.00 0.00 71 1012.7
20260507061030 42 85 0.0 0.9 0.00 0.00 0.00 69 1012.8
20260507060532 42 0 0.0 0.9 0.00 0.00 0.00 67 1012.9
20260507060108 42 0 0.0 0.9 0.00 0.00 0.00 66 1012.9
20260507055531 42 0 0.0 0.9 0.00 0.00 0.00 65 1012.9
20260507055032 43 85 0.0 0.9 0.00 0.00 0.00 63 1013.0
20260507054548 43 0 0.0 1.7 0.00 0.00 0.00 63 1012.9
20260507054030 43 0 0.0 1.7 0.00 0.00 0.00 62 1012.9
20260507053529 44 303 0.0 2.6 0.00 0.00 0.00 61 1013.0
20260507053041 44 307 0.9 2.6 0.00 0.00 0.00 60 1013.0
20260507052530 44 307 0.9 3.5 0.00 0.00 0.00 60 1013.0
20260507052030 44 288 0.9 3.5 0.00 0.00 0.00 60 1013.1
20260507051553 44 305 0.9 2.6 0.00 0.00 0.00 60 1013.1
20260507051030 44 308 0.9 2.6 0.00 0.00 0.00 62 1013.1
20260507050534 44 286 0.0 1.7 0.00 0.00 0.00 62 1013.1
20260507050044 44 283 0.0 2.6 0.00 0.00 0.00 59 1013.0
20260507045532 44 283 0.9 2.6 0.00 0.00 0.00 58 1013.0
20260507045032 44 283 0.9 3.5 0.00 0.00 0.00 59 1013.1
20260507044535 44 283 0.9 3.5 0.00 0.00 0.00 58 1013.0
20260507044030 45 284 0.0 2.6 0.00 0.00 0.00 59 1013.0
20260507043530 45 284 0.9 2.6 0.00 0.00 0.00 59 1013.0
20260507043041 45 271 0.0 3.5 0.00 0.00 0.00 58 1013.0
20260507042531 45 293 1.7 3.5 0.00 0.00 0.00 57 1013.0
20260507042030 45 287 0.9 3.5 0.00 0.00 0.00 56 1013.0
20260507041544 45 287 0.0 3.5 0.00 0.00 0.00 56 1013.0
20260507041032 45 290 0.9 3.5 0.00 0.00 0.00 56 1013.0
20260507040529 45 281 0.0 2.6 0.00 0.00 0.00 56 1012.9
20260507040042 45 281 0.0 2.6 0.00 0.00 0.00 56 1012.9
20260507035531 45 281 0.9 2.6 0.00 0.00 0.00 55 1013.0
20260507035031 45 283 0.9 2.6 0.00 0.00 0.00 55 1013.0
20260507034538 46 283 0.9 2.6 0.00 0.00 0.00 55 1012.9
20260507034030 46 276 0.9 3.5 0.00 0.00 0.00 55 1013.0
20260507033535 46 284 0.9 3.5 0.00 0.00 0.00 55 1012.8
20260507033038 46 285 0.9 2.6 0.00 0.00 0.00 54 1013.0
20260507032530 46 283 0.9 3.5 0.00 0.00 0.00 55 1012.9
20260507032030 46 282 1.7 3.5 0.00 0.00 0.00 53 1013.0
20260507031538 46 288 1.7 3.5 0.00 0.00 0.00 53 1013.1
20260507031030 46 280 1.7 3.5 0.00 0.00 0.00 53 1013.0
20260507030531 47 295 0.0 3.5 0.00 0.00 0.00 54 1013.0
20260507030037 47 293 0.0 3.5 0.00 0.00 0.00 52 1013.0
20260507025532 47 0 0.0 2.6 0.00 0.00 0.00 52 1013.0
20260507025032 47 275 0.9 2.6 0.00 0.00 0.00 51 1013.0
20260507024542 47 271 0.9 3.5 0.00 0.00 0.00 51 1013.0
20260507024031 47 296 0.9 3.5 0.00 0.00 0.00 50 1013.0
20260507023530 47 282 1.7 3.5 0.00 0.00 0.00 50 1012.9
20260507023042 47 285 1.7 3.5 0.00 0.00 0.00 50 1012.7
20260507022530 48 311 0.9 3.5 0.00 0.00 0.00 51 1012.8
20260507022031 48 290 0.9 2.6 0.00 0.00 0.00 49 1012.7
20260507021541 48 290 0.9 2.6 0.00 0.00 0.00 48 1012.6
20260507021028 48 290 0.9 4.3 0.00 0.00 0.00 48 1012.6
20260507020529 48 317 1.7 4.3 0.00 0.00 0.00 49 1012.5
20260507020044 48 312 1.7 5.2 0.00 0.00 0.00 48 1012.5
20260507015528 48 289 1.7 5.2 0.00 0.00 0.00 47 1012.3
20260507015034 48 300 1.7 4.3 0.00 0.00 0.00 47 1012.4
20260507014547 49 276 0.9 4.3 0.00 0.00 0.00 48 1012.5
20260507014029 49 287 1.7 6.1 0.00 0.00 0.00 47 1012.4
20260507013529 49 294 3.5 6.1 0.00 0.00 0.00 46 1012.5
20260507013043 49 288 2.6 5.2 0.00 0.00 0.00 46 1012.3
20260507012532 49 322 2.6 7.0 0.00 0.00 0.00 46 1012.4
20260507012031 49 317 2.6 7.8 0.00 0.00 0.00 46 1012.3
20260507011541 49 290 2.6 7.8 0.00 0.00 0.00 46 1012.3
20260507011029 49 302 2.6 4.3 0.00 0.00 0.00 46 1012.4
20260507010527 49 285 0.9 2.6 0.00 0.00 0.00 46 1012.2
20260507010057 49 0 0.0 2.6 0.00 0.00 0.00 47 1012.2
20260507005531 49 0 0.0 8.7 0.00 0.00 0.00 46 1012.3
20260507005032 49 290 0.9 8.7 0.00 0.00 0.00 46 1012.2
20260507004543 50 231 2.6 8.7 0.00 0.00 0.00 44 1012.2
20260507004030 50 301 3.5 6.1 0.00 0.00 0.00 42 1012.0
20260507003528 50 296 2.6 6.1 0.00 0.00 0.00 43 1012.0
20260507003039 50 289 2.6 7.0 0.00 0.00 0.00 42 1011.9
20260507002528 50 323 4.3 7.0 0.00 0.00 0.00 42 1011.9
20260507002033 50 297 1.7 6.1 0.00 0.00 0.00 42 1011.9
20260507001537 50 289 1.7 6.1 0.00 0.00 0.00 42 1011.7
20260507001028 51 297 3.5 8.7 0.00 0.00 0.00 42 1011.7
20260507000530 51 279 1.7 8.7 0.00 0.00 0.00 40 1011.7
20260507000042 51 286 3.5 8.7 0.00 0.00 0.00 40 1011.8
20260506235531 51 268 1.7 7.0 0.00 0.00 0.00 40 1011.6
20260506235029 51 283 1.7 6.1 0.00 0.00 0.00 40 1011.7
20260506234541 51 292 1.7 5.2 0.00 0.00 0.00 40 1011.7
20260506234030 51 269 0.9 5.2 0.00 0.00 0.00 39 1011.6
20260506233528 51 256 1.7 6.1 0.00 0.00 0.00 39 1011.6
20260506233037 51 278 1.7 6.1 0.00 0.00 0.00 39 1011.6
20260506232529 51 248 2.6 7.8 0.00 0.00 0.00 40 1011.5
20260506232028 51 281 1.7 7.8 0.00 0.00 0.00 39 1011.5
20260506231603 51 294 2.6 7.0 0.00 0.00 0.00 39 1011.5
20260506231028 51 278 3.5 7.0 0.00 0.00 0.00 38 1011.5
20260506230531 52 267 2.6 6.1 0.00 0.00 0.00 38 1011.5
20260506230104 52 287 1.7 7.8 0.00 0.00 0.00 40 1011.6
20260506225530 52 271 3.5 7.8 0.00 0.00 0.00 39 1011.6
20260506225030 52 296 2.6 7.0 0.00 0.00 0.00 38 1011.5
20260506224541 52 288 3.5 7.0 0.00 0.00 0.00 38 1011.5
20260506224029 52 293 0.9 7.0 0.00 0.00 0.00 39 1011.4
20260506223528 52 290 3.5 7.8 0.00 0.00 0.00 37 1011.4
20260506223041 52 236 2.6 7.8 0.00 0.00 0.00 39 1011.3
20260506222528 52 290 1.7 7.0 0.00 0.00 0.00 39 1011.5
20260506222028 52 272 1.7 7.0 0.00 0.00 0.00 38 1011.4
20260506221558 52 269 2.6 6.1 0.00 0.00 0.00 38 1011.5
20260506221028 52 287 1.7 7.0 0.00 0.00 0.00 38 1011.6
20260506220530 52 291 2.6 7.0 0.00 0.00 0.00 38 1011.5
20260506220050 53 229 2.6 7.0 0.00 0.00 0.00 40 1011.5
20260506215531 53 243 2.6 10.4 0.00 0.00 0.00 38 1011.4
20260506215027 52 277 4.3 10.4 0.00 0.00 0.00 38 1011.4
20260506214540 52 240 1.7 7.8 0.00 0.00 0.00 39 1011.4
20260506214029 52 233 3.5 9.6 0.00 0.00 0.00 38 1011.3
20260506213530 52 236 2.6 9.6 0.00 0.00 0.00 40 1011.4
20260506213055 53 235 2.6 9.6 0.00 0.00 0.00 39 1011.4
20260506212528 53 261 1.7 9.6 0.00 0.00 0.00 40 1011.4
20260506212030 53 261 1.7 7.0 0.00 0.00 0.00 39 1011.4
20260506211541 53 283 3.5 7.8 0.00 0.00 0.00 38 1011.4
20260506211028 53 278 2.6 7.8 0.00 0.00 0.00 39 1011.4
20260506210527 52 274 2.6 8.7 0.00 0.00 0.00 41 1011.4
20260506210052 52 271 4.3 11.3 0.00 0.00 0.00 42 1011.4
20260506205529 52 290 4.3 11.3 0.00 0.00 0.00 41 1011.5
20260506205030 52 246 2.6 9.6 0.00 0.00 0.00 41 1011.4
20260506204541 52 292 5.2 11.3 0.00 0.00 0.00 40 1011.4
20260506204027 52 295 3.5 11.3 0.00 0.00 0.00 40 1011.4
20260506203530 53 252 1.7 7.8 0.00 0.00 0.00 39 1011.5
20260506203036 53 269 3.5 7.8 0.00 0.00 0.00 40 1011.4
20260506202528 52 231 1.7 10.4 0.00 0.00 0.00 41 1011.5
20260506202030 52 247 5.2 10.4 0.00 0.00 0.00 41 1011.5
20260506201542 52 283 1.7 9.6 0.00 0.00 0.00 41 1011.5
20260506201028 52 288 2.6 9.6 0.00 0.00 0.00 39 1011.5
20260506200527 52 283 4.3 9.6 0.00 0.00 0.00 40 1011.6
20260506200037 52 297 2.6 7.0 0.00 0.00 0.00 40 1011.6
20260506195528 52 223 1.7 6.1 0.00 0.00 0.00 41 1011.5
20260506195030 52 214 0.9 5.2 0.00 0.00 0.00 43 1011.7
20260506194540 52 215 1.7 5.2 0.00 0.00 0.00 42 1011.7
20260506194031 52 320 0.9 5.2 0.00 0.00 0.00 42 1011.9
20260506193529 51 321 0.9 5.2 0.00 0.00 0.00 43 1011.7
20260506193038 51 294 1.7 7.0 0.00 0.00 0.00 41 1011.8
20260506192533 51 267 2.6 7.0 0.00 0.00 0.00 43 1011.8
20260506192032 51 269 2.6 7.8 0.00 0.00 0.00 42 1011.9
20260506191538 51 270 2.6 7.8 0.00 0.00 0.00 43 1012.0
20260506191033 50 282 4.3 7.0 0.00 0.00 0.00 42 1011.9
20260506190532 50 242 2.6 8.7 0.00 0.00 0.00 43 1011.9
20260506190043 50 285 3.5 8.7 0.00 0.00 0.00 44 1011.8
20260506185532 50 332 1.7 8.7 0.00 0.00 0.00 43 1011.9
20260506185031 51 302 3.5 8.7 0.00 0.00 0.00 42 1011.9
20260506184556 51 191 0.9 5.2 0.00 0.00 0.00 45 1011.9
20260506184031 51 285 0.9 7.0 0.00 0.00 0.00 43 1011.9
20260506183532 51 207 1.7 7.0 0.00 0.00 0.00 43 1012.0
20260506183043 51 274 1.7 6.1 0.00 0.00 0.00 42 1012.0
20260506182531 51 247 2.6 6.1 0.00 0.00 0.00 43 1012.0
20260506182033 51 233 1.7 6.1 0.00 0.00 0.00 44 1012.0
20260506181543 51 264 2.6 6.1 0.00 0.00 0.00 43 1011.9
20260506181032 51 288 1.7 5.2 0.00 0.00 0.00 43 1012.0
20260506180531 51 245 1.7 7.8 0.00 0.00 0.00 44 1012.0
20260506180047 51 163 1.7 8.7 0.00 0.00 0.00 44 1012.0
20260506175531 50 281 3.5 8.7 0.00 0.00 0.00 45 1011.9
20260506175031 50 284 1.7 4.3 0.00 0.00 0.00 43 1012.1
20260506174543 50 261 1.7 8.7 0.00 0.00 0.00 45 1012.2
20260506174031 50 230 1.7 8.7 0.00 0.00 0.00 45 1012.1
20260506173531 51 318 0.9 4.3 0.00 0.00 0.00 44 1012.4
20260506173047 50 226 1.7 4.3 0.00 0.00 0.00 47 1012.4
20260506172531 50 226 1.7 3.5 0.00 0.00 0.00 45 1012.4
20260506172035 49 298 0.9 3.5 0.00 0.00 0.00 48 1012.5
20260506171555 49 234 0.0 2.6 0.00 0.00 0.00 49 1012.5
20260506171031 49 208 0.9 3.5 0.00 0.00 0.00 49 1012.4
20260506170532 48 287 0.0 7.0 0.00 0.00 0.00 49 1012.4
20260506170043 48 291 2.6 7.8 0.00 0.00 0.00 47 1012.5
20260506165535 48 321 2.6 7.8 0.00 0.00 0.00 51 1012.4
20260506165032 48 268 2.6 7.8 0.00 0.00 0.00 48 1012.5
20260506164539 49 296 4.3 7.8 0.00 0.00 0.00 47 1012.5
20260506164030 49 328 1.7 7.0 0.00 0.00 0.00 49 1012.5
20260506163531 49 300 4.3 7.0 0.00 0.00 0.00 48 1012.5
20260506163042 50 316 4.3 7.0 0.00 0.00 0.00 47 1012.4
20260506162532 50 230 2.6 7.8 0.00 0.00 0.00 47 1012.6
20260506162031 50 299 1.7 7.8 0.00 0.00 0.00 48 1012.6
20260506161544 49 288 1.7 7.8 0.00 0.00 0.00 47 1012.7
20260506161033 49 226 0.9 7.8 0.00 0.00 0.00 49 1012.5
20260506160533 49 342 3.5 7.8 0.00 0.00 0.00 50 1012.6
20260506160057 49 307 2.6 9.6 0.00 0.00 0.00 46 1012.5
20260506155529 50 317 2.6 9.6 0.00 0.00 0.00 45 1012.6
20260506155032 50 247 1.7 4.3 0.00 0.00 0.00 47 1012.5
20260506154539 50 188 0.9 4.3 0.00 0.00 0.00 51 1012.7
20260506154034 50 237 0.9 4.3 0.00 0.00 0.00 53 1012.7
20260506153532 49 233 0.0 5.2 0.00 0.00 0.00 52 1012.8
20260506153044 49 307 0.9 7.0 0.00 0.00 0.00 56 1012.8
20260506152531 49 278 2.6 7.0 0.00 0.00 0.00 51 1013.0
20260506152030 51 246 0.9 7.0 0.00 0.00 0.00 53 1012.8
20260506151545 49 124 0.0 3.5 0.00 0.00 0.00 58 1012.9
20260506151034 49 83 0.9 3.5 0.00 0.00 0.00 58 1012.8
20260506150530 48 349 0.0 4.3 0.00 0.00 0.00 62 1012.8
20260506150047 48 48 0.9 4.3 0.00 0.00 0.00 59 1012.6
20260506145531 48 68 1.7 3.5 0.00 0.00 0.00 61 1012.6
20260506145032 48 240 1.7 3.5 0.00 0.00 0.00 57 1012.7
20260506144557 49 275 0.0 2.6 0.00 0.00 0.00 58 1012.6
20260506144035 49 220 0.0 1.7 0.00 0.00 0.00 62 1012.7
20260506143534 48 220 0.9 1.7 0.00 0.00 0.00 59 1012.7
20260506143044 48 223 0.9 2.6 0.00 0.00 0.00 61 1012.7
20260506142532 47 160 0.9 2.6 0.00 0.00 0.00 61 1012.7
20260506142031 46 158 0.9 4.3 0.00 0.00 0.00 65 1012.4
20260506141540 45 13 1.7 4.3 0.00 0.00 0.00 64 1012.6
20260506141031 45 317 1.7 2.6 0.00 0.00 0.00 63 1012.4
20260506140533 46 263 0.0 2.6 0.00 0.00 0.00 62 1012.4
20260506140042 45 0 0.0 2.6 0.00 0.00 0.00 65 1012.4
20260506135533 44 345 0.0 2.6 0.00 0.00 0.00 66 1012.4
20260506135033 44 23 0.9 2.6 0.00 0.00 0.00 66 1012.5
20260506134542 44 317 0.9 3.5 0.00 0.00 0.00 66 1012.5
20260506134031 43 349 0.0 3.5 0.00 0.00 0.00 66 1012.5
20260506133530 43 350 0.9 5.2 0.00 0.00 0.00 66 1012.5
20260506133047 43 108 1.7 5.2 0.00 0.00 0.00 69 1012.7
20260506132534 42 342 0.9 4.3 0.00 0.00 0.00 68 1012.6
20260506132031 42 314 1.7 4.3 0.00 0.00 0.00 69 1012.7
20260506131543 42 17 1.7 4.3 0.00 0.00 0.00 71 1012.7
20260506131032 41 335 2.6 4.3 0.00 0.00 0.00 70 1012.6
20260506130528 41 333 1.7 4.3 0.00 0.00 0.00 70 1012.4
20260506130046 41 350 0.9 4.3 0.00 0.00 0.00 71 1012.4
20260506125530 41 335 1.7 3.5 0.00 0.00 0.00 71 1012.4
20260506125031 40 68 1.7 5.2 0.00 0.00 0.00 73 1012.4
20260506124537 40 66 1.7 5.2 0.00 0.00 0.00 74 1012.3
20260506124033 40 326 0.9 5.2 0.00 0.00 0.00 75 1012.4
20260506123531 40 309 1.7 6.1 0.00 0.00 0.00 75 1012.3
20260506123045 40 91 2.6 6.1 0.00 0.00 0.00 76 1012.2
20260506122531 39 348 2.6 6.1 0.00 0.00 0.00 76 1012.0
20260506122033 39 119 2.6 4.3 0.00 0.00 0.00 76 1012.0
20260506121542 39 95 1.7 4.3 0.00 0.00 0.00 76 1012.0
20260506121030 39 117 1.7 4.3 0.00 0.00 0.00 76 1011.8
20260506120535 39 96 1.7 6.1 0.00 0.00 0.00 76 1011.7
20260506120039 39 338 2.6 6.1 0.00 0.00 0.00 76 1011.6
20260506115531 38 65 0.9 6.1 0.00 0.00 0.00 76 1011.6
20260506115027 38 64 2.6 6.1 0.00 0.00 0.00 75 1011.5
20260506114551 38 1 0.9 3.5 0.00 0.00 0.00 77 1011.4
20260506114030 38 0 0.9 3.5 0.00 0.00 0.00 76 1011.4
20260506113530 38 16 1.7 4.3 0.00 0.00 0.00 77 1011.3
20260506113042 38 108 1.7 7.0 0.00 0.00 0.00 77 1011.1
20260506112531 38 23 0.9 7.0 0.00 0.00 0.00 77 1011.2
20260506112031 38 89 0.9 6.1 0.00 0.00 0.00 77 1011.3
20260506111543 37 268 0.9 6.1 0.00 0.00 0.00 78 1011.4
20260506111028 37 96 2.6 6.1 0.00 0.00 0.00 78 1011.5
20260506110531 37 327 2.6 6.1 0.00 0.00 0.00 79 1011.5
20260506110042 37 84 2.6 6.1 0.00 0.00 0.00 79 1011.4
20260506105531 37 20 0.9 7.0 0.00 0.00 0.00 80 1011.2
20260506105031 37 48 2.6 7.0 0.00 0.00 0.00 81 1011.1
20260506104540 37 79 2.6 7.0 0.00 0.00 0.00 82 1011.1
20260506104030 37 313 2.6 6.1 0.00 0.00 0.00 82 1011.0
20260506103529 37 101 0.9 2.6 0.00 0.00 0.00 82 1011.0
20260506103044 37 127 0.9 2.6 0.00 0.00 0.00 81 1011.1
20260506102531 37 101 0.9 5.2 0.00 0.00 0.00 81 1010.9
20260506102031 37 72 1.7 5.2 0.00 0.00 0.00 81 1010.7
20260506101537 37 126 1.7 5.2 0.00 0.00 0.00 81 1010.7
20260506101030 37 40 1.7 5.2 0.00 0.00 0.00 81 1010.6
20260506100532 38 122 1.7 5.2 0.00 0.00 0.00 81 1010.4
20260506100100 38 20 1.7 4.3 0.00 0.00 0.00 81 1010.3
20260506095531 38 65 0.9 7.0 0.00 0.00 0.00 80 1010.1
20260506095031 38 48 1.7 7.0 0.00 0.00 0.00 79 1010.0
20260506094543 39 26 1.7 7.0 0.00 0.00 0.00 78 1010.0
20260506094031 39 359 0.9 4.3 0.00 0.00 0.00 77 1010.0
20260506093531 39 19 1.7 4.3 0.00 0.00 0.00 75 1009.9
20260506093038 39 77 0.9 4.3 0.00 0.00 0.00 71 1009.8
20260506092533 40 328 0.9 2.6 0.00 0.00 0.00 69 1009.7
20260506092033 40 356 0.9 3.5 0.00 0.00 0.00 68 1009.5
20260506091545 41 344 0.9 3.5 0.00 0.00 0.00 68 1009.6
20260506091031 41 342 1.7 4.3 0.00 0.00 0.00 66 1009.6